Time,TemperatureF,DewpointF,PressureIn,WindDirection,WindDirectionDegrees,WindSpeedMPH,WindSpeedGustMPH,Humidity,HourlyPrecipIn,Conditions,Clouds,dailyrainin,SoftwareType,DateUTC
2016-02-08 00:03:00,44.6,38.8,30.07,NNW,327,0.0,0.0,80,0.00,,,0.00,Wunderground v.1.15,2016-02-08 06:03:00,
2016-02-08 00:08:00,44.5,38.7,30.06,NNW,327,0.0,0.0,80,0.00,,,0.00,Wunderground v.1.15,2016-02-08 06:08:00,
2016-02-08 00:14:00,44.5,39.0,30.06,NNW,327,0.0,0.0,81,0.00,,,0.00,Wunderground v.1.15,2016-02-08 06:14:00,
2016-02-08 00:19:00,44.5,39.0,30.06,NNW,327,0.0,0.0,81,0.00,,,0.00,Wunderground v.1.15,2016-02-08 06:19:00,
2016-02-08 00:25:00,44.6,39.4,30.06,NNW,327,0.0,0.0,82,0.00,,,0.00,Wunderground v.1.15,2016-02-08 06:25:00,
2016-02-08 00:30:00,44.6,39.4,30.06,NNW,327,0.0,0.0,82,0.00,,,0.00,Wunderground v.1.15,2016-02-08 06:30:00,
2016-02-08 00:36:00,44.7,39.5,30.05,NNW,327,0.0,1.0,82,0.00,,,0.00,Wunderground v.1.15,2016-02-08 06:36:00,
2016-02-08 00:41:00,44.7,39.5,30.05,NNW,327,0.0,0.0,82,0.00,,,0.00,Wunderground v.1.15,2016-02-08 06:41:00,
2016-02-08 00:46:00,44.9,39.7,30.05,NW,325,0.0,0.0,82,0.00,,,0.00,Wunderground v.1.15,2016-02-08 06:46:00,
2016-02-08 00:51:00,44.9,39.7,30.05,NW,325,0.0,0.0,82,0.00,,,0.00,Wunderground v.1.15,2016-02-08 06:51:00,
2016-02-08 00:57:00,44.9,39.7,30.05,NW,325,0.0,0.0,82,0.00,,,0.00,Wunderground v.1.15,2016-02-08 06:57:00,
2016-02-08 01:03:00,44.9,39.7,30.04,NW,325,0.0,0.0,82,0.00,,,0.00,Wunderground v.1.15,2016-02-08 07:03:00,
2016-02-08 01:08:00,44.8,39.6,30.04,NW,325,0.0,0.0,82,0.00,,,0.00,Wunderground v.1.15,2016-02-08 07:08:00,
2016-02-08 01:14:00,44.7,39.5,30.04,NW,325,0.0,0.0,82,0.00,,,0.00,Wunderground v.1.15,2016-02-08 07:14:00,
2016-02-08 01:19:00,44.6,39.8,30.04,NW,321,0.0,0.0,83,0.00,,,0.00,Wunderground v.1.15,2016-02-08 07:19:00,
2016-02-08 01:25:00,44.6,39.8,30.04,NW,321,0.0,2.0,83,0.00,,,0.00,Wunderground v.1.15,2016-02-08 07:25:00,
2016-02-08 01:30:00,44.6,39.8,30.04,NW,321,0.0,0.0,83,0.00,,,0.00,Wunderground v.1.15,2016-02-08 07:30:00,
2016-02-08 01:36:00,44.6,39.8,30.04,NNW,327,0.0,0.0,83,0.00,,,0.00,Wunderground v.1.15,2016-02-08 07:36:00,
2016-02-08 01:42:00,44.6,39.8,30.03,NW,325,0.0,0.0,83,0.00,,,0.00,Wunderground v.1.15,2016-02-08 07:42:00,
2016-02-08 01:47:00,44.6,39.8,30.03,NW,325,0.0,0.0,83,0.00,,,0.00,Wunderground v.1.15,2016-02-08 07:47:00,
2016-02-08 01:53:00,44.5,39.7,30.03,NW,325,0.0,0.0,83,0.00,,,0.00,Wunderground v.1.15,2016-02-08 07:53:00,
2016-02-08 01:59:00,44.3,39.5,30.02,NW,325,0.0,0.0,83,0.00,,,0.00,Wunderground v.1.15,2016-02-08 07:59:00,
2016-02-08 02:04:00,44.2,39.7,30.02,NW,325,0.0,0.0,84,0.00,,,0.00,Wunderground v.1.15,2016-02-08 08:04:00,
2016-02-08 02:09:00,44.0,39.2,30.02,NW,325,0.0,0.0,83,0.00,,,0.00,Wunderground v.1.15,2016-02-08 08:09:00,
2016-02-08 02:14:00,43.8,39.3,30.02,NW,325,0.0,0.0,84,0.00,,,0.00,Wunderground v.1.15,2016-02-08 08:14:00,
2016-02-08 02:19:00,43.7,39.2,30.02,NW,325,0.0,0.0,84,0.00,,,0.00,Wunderground v.1.15,2016-02-08 08:19:00,
2016-02-08 02:24:00,43.4,39.2,30.02,NW,325,0.0,0.0,85,0.00,,,0.00,Wunderground v.1.15,2016-02-08 08:24:00,
2016-02-08 02:29:00,43.3,39.1,30.01,NW,325,0.0,0.0,85,0.00,,,0.00,Wunderground v.1.15,2016-02-08 08:29:00,
2016-02-08 02:34:00,43.1,39.2,30.01,NW,325,0.0,0.0,86,0.00,,,0.00,Wunderground v.1.15,2016-02-08 08:34:00,
2016-02-08 02:39:00,43.0,39.1,30.01,NW,325,0.0,0.0,86,0.00,,,0.00,Wunderground v.1.15,2016-02-08 08:39:00,
2016-02-08 02:44:00,43.0,39.1,30.01,NW,325,0.0,0.0,86,0.00,,,0.00,Wunderground v.1.15,2016-02-08 08:44:00,
2016-02-08 02:49:00,43.0,39.1,30.01,NW,325,0.0,0.0,86,0.00,,,0.00,Wunderground v.1.15,2016-02-08 08:49:00,
2016-02-08 02:54:00,42.9,39.0,30.01,NW,325,0.0,0.0,86,0.00,,,0.00,Wunderground v.1.15,2016-02-08 08:54:00,
2016-02-08 02:59:00,42.9,39.0,30.02,NW,325,0.0,0.0,86,0.00,,,0.00,Wunderground v.1.15,2016-02-08 08:59:00,
2016-02-08 03:04:00,42.8,38.6,30.02,NW,325,0.0,0.0,85,0.00,,,0.00,Wunderground v.1.15,2016-02-08 09:04:00,
2016-02-08 03:14:00,42.6,38.7,30.01,NW,325,0.0,0.0,86,0.00,,,0.00,Wunderground v.1.15,2016-02-08 09:14:00,
2016-02-08 03:19:00,42.5,38.6,30.01,NW,325,0.0,0.0,86,0.00,,,0.00,Wunderground v.1.15,2016-02-08 09:19:00,
2016-02-08 03:24:00,42.3,38.4,30.01,NW,325,0.0,0.0,86,0.00,,,0.00,Wunderground v.1.15,2016-02-08 09:24:00,
2016-02-08 03:29:00,42.1,37.9,30.01,NW,325,0.0,0.0,85,0.00,,,0.00,Wunderground v.1.15,2016-02-08 09:29:00,
2016-02-08 03:34:00,41.9,37.7,30.01,NW,325,0.0,0.0,85,0.00,,,0.00,Wunderground v.1.15,2016-02-08 09:34:00,
2016-02-08 03:44:00,41.4,37.5,30.01,NW,325,0.0,0.0,86,0.00,,,0.00,Wunderground v.1.15,2016-02-08 09:44:00,
2016-02-08 03:49:00,41.1,37.2,30.01,NW,325,0.0,0.0,86,0.00,,,0.00,Wunderground v.1.15,2016-02-08 09:49:00,
2016-02-08 03:54:00,40.9,37.3,30.01,NW,325,0.0,0.0,87,0.00,,,0.00,Wunderground v.1.15,2016-02-08 09:54:00,
2016-02-08 03:59:00,40.7,37.1,30.01,NW,325,0.0,0.0,87,0.00,,,0.00,Wunderground v.1.15,2016-02-08 09:59:00,
2016-02-08 04:04:00,40.6,37.3,30.01,NW,325,0.0,0.0,88,0.00,,,0.00,Wunderground v.1.15,2016-02-08 10:04:00,
2016-02-08 04:09:00,40.5,37.2,30.01,NW,325,0.0,0.0,88,0.00,,,0.00,Wunderground v.1.15,2016-02-08 10:09:00,
2016-02-08 04:14:00,40.3,37.0,30.00,NW,325,0.0,0.0,88,0.00,,,0.00,Wunderground v.1.15,2016-02-08 10:14:00,
2016-02-08 04:19:00,40.2,36.9,30.00,NW,325,0.0,0.0,88,0.00,,,0.00,Wunderground v.1.15,2016-02-08 10:19:00,
2016-02-08 04:24:00,40.1,37.1,30.00,NW,325,0.0,0.0,89,0.00,,,0.00,Wunderground v.1.15,2016-02-08 10:24:00,
2016-02-08 04:29:00,40.0,37.0,30.00,NW,325,0.0,0.0,89,0.00,,,0.00,Wunderground v.1.15,2016-02-08 10:29:00,
2016-02-08 04:34:00,40.0,37.0,30.00,NW,325,0.0,0.0,89,0.00,,,0.00,Wunderground v.1.15,2016-02-08 10:34:00,
2016-02-08 04:39:00,39.9,36.9,30.00,NW,325,0.0,0.0,89,0.00,,,0.00,Wunderground v.1.15,2016-02-08 10:39:00,
2016-02-08 04:44:00,39.9,36.9,30.00,NW,325,0.0,0.0,89,0.00,,,0.00,Wunderground v.1.15,2016-02-08 10:44:00,
2016-02-08 04:50:00,39.9,36.9,29.99,NW,325,0.0,0.0,89,0.00,,,0.00,Wunderground v.1.15,2016-02-08 10:50:00,
2016-02-08 04:54:00,40.0,37.0,29.99,NW,325,0.0,0.0,89,0.00,,,0.00,Wunderground v.1.15,2016-02-08 10:54:00,
2016-02-08 04:59:00,39.8,36.8,29.99,NW,325,0.0,0.0,89,0.00,,,0.00,Wunderground v.1.15,2016-02-08 10:59:00,
2016-02-08 05:05:00,39.8,36.5,30.00,NW,325,0.0,0.0,88,0.00,,,0.00,Wunderground v.1.15,2016-02-08 11:05:00,
2016-02-08 05:10:00,39.7,36.4,30.00,NW,325,0.0,0.0,88,0.00,,,0.00,Wunderground v.1.15,2016-02-08 11:10:00,
2016-02-08 05:15:00,39.5,36.2,30.00,NW,325,0.0,0.0,88,0.00,,,0.00,Wunderground v.1.15,2016-02-08 11:15:00,
2016-02-08 05:20:00,39.3,36.0,30.00,NW,325,0.0,0.0,88,0.00,,,0.00,Wunderground v.1.15,2016-02-08 11:20:00,
2016-02-08 05:25:00,39.1,35.8,30.00,NW,325,0.0,0.0,88,0.00,,,0.00,Wunderground v.1.15,2016-02-08 11:25:00,
2016-02-08 05:30:00,39.0,36.0,30.00,NW,325,0.0,0.0,89,0.00,,,0.00,Wunderground v.1.15,2016-02-08 11:30:00,
2016-02-08 05:35:00,38.9,35.9,30.00,NW,325,0.0,0.0,89,0.00,,,0.00,Wunderground v.1.15,2016-02-08 11:35:00,
2016-02-08 05:40:00,38.8,36.1,30.00,NW,325,0.0,0.0,90,0.00,,,0.00,Wunderground v.1.15,2016-02-08 11:40:00,
2016-02-08 05:45:00,38.9,36.2,30.00,NW,325,0.0,0.0,90,0.00,,,0.00,Wunderground v.1.15,2016-02-08 11:45:00,
2016-02-08 05:50:00,39.1,36.4,30.00,NW,325,0.0,0.0,90,0.00,,,0.00,Wunderground v.1.15,2016-02-08 11:50:00,
2016-02-08 05:55:00,39.2,36.5,30.00,NW,325,0.0,0.0,90,0.00,,,0.00,Wunderground v.1.15,2016-02-08 11:55:00,
2016-02-08 06:00:00,39.3,36.6,30.00,NW,325,0.0,0.0,90,0.00,,,0.00,Wunderground v.1.15,2016-02-08 12:00:00,
2016-02-08 06:05:00,39.4,36.4,30.00,NW,325,0.0,0.0,89,0.00,,,0.00,Wunderground v.1.15,2016-02-08 12:05:00,
2016-02-08 06:10:00,39.5,36.5,30.00,NW,325,0.0,0.0,89,0.00,,,0.00,Wunderground v.1.15,2016-02-08 12:10:00,
2016-02-08 06:15:00,39.5,36.5,30.00,NW,325,0.0,0.0,89,0.00,,,0.00,Wunderground v.1.15,2016-02-08 12:15:00,
2016-02-08 06:20:00,39.6,36.6,30.00,NW,325,0.0,0.0,89,0.00,,,0.00,Wunderground v.1.15,2016-02-08 12:20:00,
2016-02-08 06:25:00,39.7,36.7,29.99,NW,325,0.0,0.0,89,0.00,,,0.00,Wunderground v.1.15,2016-02-08 12:25:00,
2016-02-08 06:30:00,39.8,36.8,29.99,NW,325,0.0,0.0,89,0.00,,,0.00,Wunderground v.1.15,2016-02-08 12:30:00,
2016-02-08 06:35:00,40.0,36.7,30.00,NW,325,0.0,0.0,88,0.00,,,0.00,Wunderground v.1.15,2016-02-08 12:35:00,
2016-02-08 06:40:00,40.1,36.8,29.99,NW,325,0.0,0.0,88,0.00,,,0.00,Wunderground v.1.15,2016-02-08 12:40:00,
2016-02-08 06:45:00,40.2,36.9,29.99,NW,325,0.0,0.0,88,0.00,,,0.00,Wunderground v.1.15,2016-02-08 12:45:00,
2016-02-08 06:50:00,40.4,37.1,29.99,NW,325,0.0,0.0,88,0.00,,,0.00,Wunderground v.1.15,2016-02-08 12:50:00,
2016-02-08 06:56:00,40.5,37.2,29.99,NW,325,0.0,1.0,88,0.00,,,0.00,Wunderground v.1.15,2016-02-08 12:56:00,
2016-02-08 07:01:00,40.7,37.4,29.99,NW,325,0.0,0.0,88,0.00,,,0.00,Wunderground v.1.15,2016-02-08 13:01:00,
2016-02-08 07:06:00,40.9,37.6,29.99,NW,325,0.0,0.0,88,0.00,,,0.00,Wunderground v.1.15,2016-02-08 13:06:00,
2016-02-08 07:11:00,41.0,37.7,29.99,NW,325,0.0,0.0,88,0.00,,,0.00,Wunderground v.1.15,2016-02-08 13:11:00,
2016-02-08 07:16:00,41.3,38.0,29.99,NW,325,0.0,0.0,88,0.00,,,0.00,Wunderground v.1.15,2016-02-08 13:16:00,
2016-02-08 07:21:00,41.6,38.3,29.99,NW,325,0.0,0.0,88,0.00,,,0.00,Wunderground v.1.15,2016-02-08 13:21:00,
2016-02-08 07:26:00,42.1,38.8,29.99,NW,325,0.0,0.0,88,0.00,,,0.00,Wunderground v.1.15,2016-02-08 13:26:00,
2016-02-08 07:31:00,42.7,39.4,29.99,NW,325,0.0,0.0,88,0.00,,,0.00,Wunderground v.1.15,2016-02-08 13:31:00,
2016-02-08 07:36:00,43.4,39.8,29.99,NW,325,0.0,2.0,87,0.00,,,0.00,Wunderground v.1.15,2016-02-08 13:36:00,
2016-02-08 07:41:00,44.0,40.1,29.99,NW,322,0.0,2.0,86,0.00,,,0.00,Wunderground v.1.15,2016-02-08 13:41:00,
2016-02-08 07:46:00,44.7,40.5,29.99,NW,322,0.0,2.0,85,0.00,,,0.00,Wunderground v.1.15,2016-02-08 13:46:00,